BEL8RD EBBR-LIMC

Flight info

Callsign BEL8RD
Flight time N/A
Altitude 35000
Route ROUSY DCT GTQ DCT DEVDI DCT RIPUS DCT GERSA DCT SOSON DCT DEGAD Z424 RIXUV
Aircraft A320/M-SDE3FGHIRWY/LB1

Departure

Time 2026-05-07 16:40
Airport Brussels Airport (EBBR)

Arrival

Time N/A
Airport Milan Malpensa International Airport (LIMC)
Time Latitude Longitude Altitude Speed Heading
2026-05-07 15:55 50.90328 4.48314 121 ft 0 kts 155°
2026-05-07 16:32 50.90345 4.48303 116 ft 4 kts 153°
2026-05-07 16:32 50.90368 4.48282 117 ft 4 kts 146°
2026-05-07 16:32 50.90389 4.48255 117 ft 4 kts 128°
2026-05-07 16:32 50.90398 4.48222 118 ft 3 kts 72°
2026-05-07 16:33 50.90395 4.48210 117 ft 0 kts 65°
2026-05-07 16:35 50.90398 4.48220 118 ft 1 kts 65°
2026-05-07 16:35 50.90413 4.48271 117 ft 6 kts 65°
2026-05-07 16:35 50.90427 4.48319 118 ft 4 kts 65°
2026-05-07 16:36 50.90437 4.48353 117 ft 3 kts 66°
2026-05-07 16:36 50.90463 4.48446 119 ft 14 kts 65°
2026-05-07 16:36 50.90507 4.48598 120 ft 16 kts 65°
2026-05-07 16:36 50.90556 4.48765 118 ft 17 kts 66°
2026-05-07 16:37 50.90608 4.48947 121 ft 19 kts 65°
2026-05-07 16:37 50.90664 4.49140 119 ft 20 kts 65°
2026-05-07 16:37 50.90723 4.49344 121 ft 20 kts 66°
2026-05-07 16:37 50.90783 4.49553 123 ft 21 kts 66°
2026-05-07 16:38 50.90850 4.49630 122 ft 5 kts 20°
2026-05-07 16:38 50.90880 4.49647 121 ft 6 kts 19°
2026-05-07 16:38 50.90931 4.49671 122 ft 8 kts 14°
2026-05-07 16:38 50.90976 4.49634 122 ft 7 kts 306°
2026-05-07 16:39 50.90983 4.49549 120 ft 8 kts 276°
2026-05-07 16:39 50.90981 4.49348 118 ft 47 kts 255°
2026-05-07 16:39 50.90745 4.48522 120 ft 114 kts 244°
2026-05-07 16:39 50.90337 4.47103 142 ft 165 kts 248°
2026-05-07 16:40 50.89849 4.45427 635 ft 175 kts 246°
2026-05-07 16:40 50.89333 4.43577 1132 ft 194 kts 248°
2026-05-07 16:40 50.88784 4.41485 1527 ft 215 kts 248°
2026-05-07 16:40 50.88023 4.39336 1961 ft 234 kts 223°
2026-05-07 16:41 50.86533 4.38164 2444 ft 254 kts 185°
2026-05-07 16:41 50.84806 4.38715 3241 ft 260 kts 148°
2026-05-07 16:41 50.83912 4.39964 3834 ft 262 kts 125°
2026-05-07 16:41 50.83124 4.42556 4783 ft 264 kts 103°
2026-05-07 16:42 50.82942 4.45455 5699 ft 267 kts 92°
2026-05-07 16:42 50.82721 4.48386 6557 ft 272 kts 105°
2026-05-07 16:42 50.82004 4.51159 7364 ft 275 kts 122°
2026-05-07 16:42 50.80824 4.53559 8198 ft 278 kts 133°
2026-05-07 16:43 50.79534 4.55870 9054 ft 282 kts 133°